timestamp,surface_pressure_avg,surface_temp_avg,battery_voltage,lat,long
2020-11-15 00:09:01+00:00,365.5197,7.8,12.65,47.84626,-54.09684
2020-11-15 00:19:01+00:00,362.8596,7.6,12.65,47.84626,-54.09684
2020-11-15 00:29:01+00:00,354.1995,7.91,12.65,47.84626,-54.09684
2020-11-15 00:39:01+00:00,340.6996,7.89,12.65,47.84626,-54.09684
2020-11-15 00:49:01+00:00,331.98800000000006,7.97,12.65,47.84626,-54.09684
2020-11-15 00:59:01+00:00,332.9913,8.0,12.65,47.84626,-54.09684
2020-11-15 01:09:01+00:00,324.6313,7.89,12.65,47.84626,-54.09684
2020-11-15 01:19:01+00:00,309.0264,7.87,12.65,47.84626,-54.09684
2020-11-15 01:29:01+00:00,312.833,7.9,12.65,47.84626,-54.09684
2020-11-15 01:39:01+00:00,306.258,7.69,12.65,47.84626,-54.09684
2020-11-15 01:49:01+00:00,278.0197,7.13,12.65,47.84626,-54.09684
2020-11-15 01:59:01+00:00,267.6231,6.9,12.65,47.84626,-54.09684
2020-11-15 02:09:01+00:00,275.578,6.9,12.65,47.84626,-54.09684
2020-11-15 02:19:01+00:00,258.0398,6.9,12.65,47.84626,-54.09684
2020-11-15 02:29:01+00:00,226.2381,6.87,12.65,47.84626,-54.09684
2020-11-15 02:39:01+00:00,226.5581,6.9,12.65,47.84626,-54.09684
2020-11-15 02:49:01+00:00,227.0014,7.53,12.65,47.84626,-54.09684
2020-11-15 02:59:01+00:00,204.6331,7.2,12.65,47.84626,-54.09684
2020-11-15 03:09:01+00:00,190.3765,6.8,12.65,47.84626,-54.09684
2020-11-15 03:19:01+00:00,195.8015,6.86,12.65,47.84626,-54.09684
2020-11-15 03:29:01+00:00,189.2531,6.9,12.65,47.84626,-54.09684
2020-11-15 03:39:01+00:00,173.1064,6.7,12.65,47.84626,-54.09684
2020-11-15 03:49:01+00:00,170.4715,6.6,12.65,47.84626,-54.09684
2020-11-15 03:59:01+00:00,172.2365,6.7,12.65,47.84626,-54.09684
2020-11-15 04:09:01+00:00,168.0248,6.7,12.65,47.84626,-54.09684
2020-11-15 04:19:01+00:00,166.5165,6.6,12.65,47.84626,-54.09684
2020-11-15 04:29:01+00:00,168.1432,6.65,12.65,47.84626,-54.09684
2020-11-15 04:39:01+00:00,168.4198,6.69,12.65,47.84626,-54.09684
2020-11-15 04:49:01+00:00,165.8615,6.6,12.65,47.84626,-54.09684
2020-11-15 04:59:01+00:00,168.0848,6.6,12.65,47.84626,-54.09684
2020-11-15 05:09:01+00:00,172.7281,6.87,12.65,47.84626,-54.09684
2020-11-15 05:19:01+00:00,169.8331,7.1,12.65,47.84626,-54.09684
2020-11-15 05:29:01+00:00,166.1065,6.85,12.65,47.84626,-54.09684
2020-11-15 05:39:01+00:00,166.6548,6.89,12.65,47.84626,-54.09684
2020-11-15 05:49:01+00:00,167.7515,6.93,12.65,47.84626,-54.09684
2020-11-15 05:59:01+00:00,169.3348,6.95,12.65,47.84626,-54.09684
2020-11-15 06:09:01+00:00,177.3948,7.27,12.65,47.84626,-54.09684
2020-11-15 06:19:01+00:00,185.7448,7.38,12.65,47.84626,-54.09684
2020-11-15 06:29:01+00:00,188.6264,7.2,12.65,47.84626,-54.09684
2020-11-15 06:39:01+00:00,190.5815,7.1,12.65,47.84626,-54.09684
2020-11-15 06:49:01+00:00,197.2082,7.1,12.65,47.84626,-54.09684
2020-11-15 06:59:01+00:00,205.6514,7.19,12.65,47.84626,-54.09684
2020-11-15 07:09:01+00:00,207.6115,7.44,12.65,47.84626,-54.09684
2020-11-15 07:19:01+00:00,208.1664,7.4,12.57,47.84626,-54.09684
2020-11-15 07:29:01+00:00,218.2198,7.4,12.57,47.84626,-54.09684
2020-11-15 07:39:01+00:00,230.4047,7.52,12.57,47.84626,-54.09684
2020-11-15 07:49:01+00:00,232.3715,7.5,12.57,47.84626,-54.09684
2020-11-15 07:59:01+00:00,240.3414,7.3,12.57,47.84626,-54.09684
2020-11-15 08:09:01+00:00,256.3397,7.25,12.57,47.84626,-54.09684
2020-11-15 08:19:01+00:00,267.3898,7.3,12.57,47.84626,-54.09684
2020-11-15 08:29:01+00:00,271.798,7.2,12.57,47.84626,-54.09684
2020-11-15 08:39:01+00:00,276.5231,7.2,12.57,47.84626,-54.09684
2020-11-15 08:49:01+00:00,289.0013,7.68,12.57,47.84626,-54.09684
2020-11-15 08:59:01+00:00,296.2163,7.73,12.57,47.84626,-54.09684
2020-11-15 09:09:01+00:00,301.0114,7.7,12.57,47.84626,-54.09684
2020-11-15 09:19:01+00:00,311.4547,7.7,12.57,47.84626,-54.09684
2020-11-15 09:29:01+00:00,325.4846,7.7,12.57,47.84626,-54.09684
2020-11-15 09:39:01+00:00,337.8547,7.7,12.57,47.84626,-54.09684
2020-11-15 09:49:01+00:00,346.033,7.6,12.57,47.84626,-54.09684
2020-11-15 09:59:01+00:00,355.3813,7.5,12.57,47.84626,-54.09684
2020-11-15 10:09:01+00:00,364.3879,7.59,12.57,47.84626,-54.09684
2020-11-15 10:19:01+00:00,371.5546,7.7,12.57,47.84626,-54.09684
2020-11-15 10:29:01+00:00,379.2329,7.89,12.57,47.84626,-54.09684
2020-11-15 10:39:01+00:00,382.3829,7.9,12.57,47.84626,-54.09684
2020-11-15 10:49:01+00:00,386.1079,7.9,12.57,47.84626,-54.09684
2020-11-15 10:59:01+00:00,395.9313,7.83,12.57,47.84626,-54.09684
2020-11-15 11:09:01+00:00,401.3112,7.8,12.57,47.84626,-54.09684
2020-11-15 11:19:01+00:00,403.2246,7.8,12.57,47.84626,-54.09684
2020-11-15 11:29:01+00:00,403.2413,7.8,12.57,47.84626,-54.09684
2020-11-15 11:39:01+00:00,402.6046,7.83,12.57,47.84626,-54.09684
2020-11-15 11:49:01+00:00,402.9662,7.9,12.57,47.84626,-54.09684
2020-11-15 11:59:01+00:00,402.8246,7.9,12.57,47.84626,-54.09684
2020-11-15 12:09:01+00:00,402.6079,7.9,12.57,47.84626,-54.09684
2020-11-15 12:19:01+00:00,400.3396,7.9,12.65,47.84626,-54.09684
2020-11-15 12:29:01+00:00,393.0196,7.9,12.65,47.84626,-54.09684
2020-11-15 12:39:01+00:00,392.1263,7.89,12.65,47.84626,-54.09684
2020-11-15 12:49:01+00:00,391.8696,7.89,12.65,47.84626,-54.09684
2020-11-15 12:59:01+00:00,385.4462,7.89,12.65,47.84626,-54.09684
2020-11-15 13:09:01+00:00,375.06300000000016,7.8,12.65,47.84626,-54.09684
2020-11-15 13:19:01+00:00,371.5363,7.8,13.21,47.84626,-54.09684
2020-11-15 13:29:01+00:00,364.9612,7.8,13.21,47.84626,-54.09684
2020-11-15 13:39:01+00:00,352.11300000000006,7.6,13.21,47.84626,-54.09684
2020-11-15 13:49:01+00:00,345.6446,7.59,13.21,47.84626,-54.09684
2020-11-15 13:59:01+00:00,343.3879,7.6,13.21,47.84626,-54.09684
2020-11-15 14:09:01+00:00,326.7596,7.59,13.21,47.84626,-54.09684
2020-11-15 14:19:01+00:00,311.5813,7.6,14.48,47.84626,-54.09684
2020-11-15 14:29:01+00:00,306.6997,7.8,14.48,47.84626,-54.09684
2020-11-15 14:39:01+00:00,298.1098,7.8,14.48,47.84626,-54.09684
2020-11-15 14:49:01+00:00,283.2347,7.8,14.48,47.84626,-54.09684
2020-11-15 14:59:01+00:00,271.1464,7.67,14.48,47.84626,-54.09684
2020-11-15 15:09:01+00:00,268.7864,7.66,14.48,47.84626,-54.09684
2020-11-15 15:19:01+00:00,257.3931,7.68,14.24,47.84626,-54.09684
2020-11-15 15:29:01+00:00,238.8231,7.7,14.24,47.84626,-54.09684
2020-11-15 15:39:01+00:00,227.8498,7.78,14.24,47.84626,-54.09684
2020-11-15 15:49:01+00:00,227.5231,7.8,14.24,47.84626,-54.09684
2020-11-15 15:59:01+00:00,221.7931,7.8,14.24,47.84626,-54.09684
2020-11-15 16:09:01+00:00,209.9898,7.8,14.24,47.84626,-54.09684
2020-11-15 16:19:01+00:00,205.1348,7.8,14.0,47.84626,-54.09684
2020-11-15 16:29:01+00:00,204.2014,7.79,14.0,47.84626,-54.09684
2020-11-15 16:39:01+00:00,197.9848,7.77,14.0,47.84626,-54.09684
2020-11-15 16:49:01+00:00,191.9414,7.7,14.0,47.84626,-54.09684
2020-11-15 16:59:01+00:00,189.8281,7.7,14.0,47.84626,-54.09684
2020-11-15 17:09:01+00:00,187.7165,7.7,14.0,47.84626,-54.09684
2020-11-15 17:19:01+00:00,185.2731,7.7,14.16,47.84626,-54.09684
2020-11-15 17:29:01+00:00,180.8465,7.7,14.16,47.84626,-54.09684
2020-11-15 17:39:01+00:00,178.2298,7.7,14.16,47.84626,-54.09684
2020-11-15 17:49:01+00:00,180.0765,7.7,14.16,47.84626,-54.09684
2020-11-15 17:59:01+00:00,179.5298,7.7,14.16,47.84626,-54.09684
2020-11-15 18:09:01+00:00,177.9214,7.67,14.16,47.84626,-54.09684
2020-11-15 18:19:01+00:00,179.3165,7.63,14.0,47.84626,-54.09684
2020-11-15 18:29:01+00:00,185.0948,7.68,14.0,47.84626,-54.09684
2020-11-15 18:39:01+00:00,181.9281,7.69,14.0,47.84626,-54.09684
2020-11-15 18:49:01+00:00,180.3898,7.66,14.0,47.84626,-54.09684
2020-11-15 18:59:01+00:00,194.4632,7.68,14.0,47.84626,-54.09684
2020-11-15 19:09:01+00:00,199.7581,7.6,14.0,47.84626,-54.09684
2020-11-15 19:19:01+00:00,199.2231,7.6,13.68,47.84626,-54.09684
2020-11-15 19:29:01+00:00,206.8148,7.6,13.68,47.84626,-54.09684
2020-11-15 19:39:01+00:00,214.5531,7.6,13.68,47.84626,-54.09684
2020-11-15 19:49:01+00:00,215.6648,7.6,13.68,47.84626,-54.09684
2020-11-15 19:59:01+00:00,219.0631,7.6,13.68,47.84626,-54.09684
2020-11-15 20:09:01+00:00,229.4164,7.6,13.68,47.84626,-54.09684
2020-11-15 20:19:01+00:00,237.7098,7.6,13.29,47.84626,-54.09684
2020-11-15 20:29:01+00:00,244.0731,7.6,13.29,47.84626,-54.09684
2020-11-15 20:39:01+00:00,252.3365,7.6,13.29,47.84626,-54.09684
2020-11-15 20:49:01+00:00,263.2647,7.6,13.29,47.84626,-54.09684
2020-11-15 20:59:01+00:00,271.1265,7.59,13.29,47.84626,-54.09684
2020-11-15 21:09:01+00:00,277.1448,7.58,13.29,47.84626,-54.09684
2020-11-15 21:19:01+00:00,283.0164,7.5,12.97,47.84626,-54.09684
2020-11-15 21:29:01+00:00,292.4647,7.5,12.97,47.84626,-54.09684
2020-11-15 21:39:01+00:00,300.7996,7.5,12.97,47.84626,-54.09684
2020-11-15 21:49:01+00:00,308.6346,7.5,12.97,47.84626,-54.09684
2020-11-15 21:59:01+00:00,316.7664,7.5,12.97,47.84626,-54.09684
2020-11-15 22:09:01+00:00,329.0797,7.5,12.97,47.84626,-54.09684
2020-11-15 22:19:01+00:00,339.1313,7.45,12.81,47.84626,-54.09684
2020-11-15 22:29:01+00:00,344.1146,7.48,12.81,47.84626,-54.09684
2020-11-15 22:39:01+00:00,348.1646,7.49,12.81,47.84626,-54.09684
2020-11-15 22:49:01+00:00,358.5995,7.46,12.81,47.84626,-54.09684
2020-11-15 22:59:01+00:00,367.5696,7.4,12.81,47.84626,-54.09684
2020-11-15 23:09:01+00:00,367.2112,7.42,12.81,47.84626,-54.09684
2020-11-15 23:19:01+00:00,368.9513,7.45,12.73,47.84626,-54.09684
2020-11-15 23:29:01+00:00,372.3212,7.41,12.73,47.84626,-54.09684
2020-11-15 23:39:01+00:00,373.883,7.41,12.73,47.84626,-54.09684
2020-11-15 23:49:01+00:00,374.3213,7.43,12.73,47.84626,-54.09684
2020-11-15 23:59:01+00:00,375.3412,7.44,12.73,47.84626,-54.09684
